Regional Weather Roundup
Issued by NWS Grand Forks, ND

Home | Current Version | Previous Version | Text Only | Print | Product List | Glossary Off
Versions: 1 2 3 4 5 6 7 8 9 10 11 12 13 14 15 16 17 18 19 20 21 22 23 24 25 26 27 28 29 30 31 32 33 34 35 36 37 38 39 40 41 42 43 44 45 46 47 48 49 50

863
ASUS43 KFGF 281010
RWRFGF
PRAIRIE TO PINES  WEATHER ROUNDUP
NATIONAL WEATHER SERVICE EASTERN NORTH DAKOTA/GRAND FORKS ND
500 AM CDT WED JUN 28 2017

 **SATELLITE DATA USED TO AUGMENT SKY COVER AT AUTOMATED STATIONS**
 *****  WEATHER ACROSS EASTERN NORTH DAKOTA  *****

CITY           SKY/WX    TMP DP  RH WIND       PRES   REMARKS
GRAND FORKS    MOCLDY    62  60  93 SE12      29.49S
GRAND FRKS AFB CLOUDY    61  59  93 S6        29.50S
DEVILS LAKE    LGT RAIN  62  62 100 E3        29.55F
FARGO          FAIR      64  60  87 E18G25    29.47F
WAHPETON ARPT  CLOUDY    63  55  77 SE16      29.49S
$$

 ***** WEATHER ACROSS CENTRAL AND WESTERN NORTH DAKOTA  *****

CITY           SKY/WX    TMP DP  RH WIND       PRES   REMARKS
BISMARCK       CLOUDY    64  60  87 NW10      29.58R
MINOT          FAIR      62  57  83 NW14      29.59R
JAMESTOWN      FAIR      57  55  93 NW8       29.46F
MINOT AFB      FAIR      62  56  82 NW15      29.59R
GARRISON         N/A     60  56  86 NW15      29.60R
WILLISTON      FAIR      60  41  49 N15       29.68R
DICKINSON      FAIR      56  54  93 NW9       29.68R
HETTINGER      CLOUDY    63  56  78 NW15      29.71R
$$

 *****  OTHER AIRPORT OBSERVATIONS IN OUR AREA  *****

CITY           SKY/WX    TMP DP  RH WIND       PRES   REMARKS
WALHALLA       NOT AVBL
GRAFTON AIRPOR DRIZZLE   59  59 100 CALM      29.55R
VALLEY CITY AR PTSUNNY   59  59 100 E8        29.46F
CANDO          NOT AVBL
CAVALIER APRT  FAIR      61  55  82 S12       29.52R
GWINNER        CLOUDY    64  59  82 SE7       29.42F
SHEYENNE NWR     N/A     63  58  85 SE10      29.95S
ROLLA            N/A     63  61  94 NW17      29.54R
 ***** THE ABOVE OBSERVATIONS ARE NON NWS ARE NOT QUALITY
       CONTROLLED AND MAY MIS-REPORT RAIN FOR SNOW...
$$

  *****  WEATHER ACROSS NORTHERN MINNESOTA  *****

CITY           SKY/WX    TMP DP  RH WIND       PRES   REMARKS
FLAG ISLAND    FAIR      63  52  67 SE9       29.58F
WARROAD        CLOUDY    63  54  72 SE8       29.57F
ROSEAU         MOCLDY    63  54  72 S6        29.56F
HALLOCK        DRIZZLE   61  55  82 S14       29.55R
THF RVR FALLS  FAIR      61  58  90 SE15      29.55F
BAUDETTE       NOT AVBL
WASKISH        CLOUDY    63  52  67 S7        29.62S
CROOKSTON      FAIR      61  59  94 SE14      29.51F
STEPHEN NDAWN    N/A     61  57  88 S2          N/A
GREENBUSH NDAW   N/A     63  52  67 S14         N/A
$$
  *****  WEATHER ACROSS CENTRAL AND WEST MINNESOTA  *****

CITY           SKY/WX    TMP DP  RH WIND       PRES   REMARKS
FOSSTON        DRIZZLE   57  54  88 SE10G18   29.58F
BEMIDJI        LGT RAIN  58  53  84 SE6       29.62F
PARK RAPIDS    NOT AVBL
ELBOW LAKE     CLOUDY    64  61  89 SE14G23   29.53S
WADENA         CLOUDY    57  55  94 E5        29.60F
DETROIT LAKES  LGT RAIN  61  57  88 SE7       29.58F
MOORHEAD       FAIR      63  59  88 SE15G24   29.48S
FERGUS FALLS   CLOUDY    63  63 100 SE16G22   29.50F
MORRIS MN      CLOUDY    66  61  82 SE15G22   29.50F
STAPLES        LGT RAIN  57  54  88 SE3       29.61S
$$
  *****  WEATHER ELSEWHERE ACROSS MINNESOTA  *****

CITY           SKY/WX    TMP DP  RH WIND       PRES   REMARKS
DULUTH         FAIR      58  47  66 SE8       29.73F
INTRNTL FALLS  FAIR      52  46  80 SE6       29.66R
ELY            FAIR      55  45  67 S9        29.74R
CLOQUET        LGT RAIN  57  46  67 SE5       29.71F
WHEATON        LGT RAIN  63  57  82 E13       29.50R
BRAINERD       NOT AVBL
HIBBING        FAIR      50  47  89 SE6       29.71S
ALEXANDRIA     CLOUDY    61  60  97 SE13G24   29.58S
SAINT CLOUD    LGT RAIN  62  61  96 S18G25    29.64F
MINNEAPOLIS    TSTM      62  59  90 SE12      29.70F
$$

  *****  WEATHER ACROSS SOUTH DAKOTA  *****

CITY           SKY/WX    TMP DP  RH WIND       PRES   REMARKS
SIOUX FALLS    CLOUDY    65  63  93 CALM      29.59R
BROOKINGS      MOCLDY    64  61  90 S12       29.55R
WATERTOWN      FAIR      66  61  84 S13       29.49R
HURON          FAIR      71  54  54 SW12      29.49F
SISSETON         N/A     67  65  93 E10       29.46R
ABERDEEN       FAIR      65  60  84 W13       29.44F
MITCHELL       FAIR      70  59  68 SW14      29.55R
PIERRE         LGT RAIN  68  57  68 NW15      29.58R
MOBRIDGE       CLOUDY    69  55  60 NW17G23   29.54R
RAPID CITY     FAIR      61  51  70 NW15      29.75S
$$

  *****  SOME WEATHER IN NEARBY STATES *****

CITY           SKY/WX    TMP DP  RH WIND       PRES   REMARKS
GLASGOW MT     FAIR      52  39  61 SE8       29.74R
GREAT FALLS MT FAIR      50  38  63 W9        29.77S
CHEYENNE WY    FAIR      54  39  57 NE7       29.99R
SCOTTSBLUFF NE FAIR      54  48  80 NW7       29.86S
OMAHA NE       CLOUDY    67  63  87 S22G30    29.74R
DES MOINES IA  TSTM      73  66  78 SW20G28   29.83R
DAVENPORT IA   NOT AVBL
CHICAGO IL     FAIR      61  47  59 S9        30.00S
EAU CLAIRE WI  FAIR      63  48  58 SE10      29.75F
LA CROSSE WI   CLOUDY    71  51  49 S14       29.77F
$$

  *****  SOME NATIONAL WEATHER *****

CITY           SKY/WX    TMP DP  RH WIND       PRES   REMARKS
LA GUARDIA NY  FAIR      64  52  64 NW12      30.07S
RALEIGH NC     FAIR      60  55  83 NE5       30.16S
ATLANTA GA     MOCLDY    66  57  72 E8        30.11R
NEW ORLEANS LA CLOUDY    78  71  79 E3        29.97F
OKLAHOMA CITY  FAIR      72  69  90 S13       29.90S
ALBUQUERQUE NM FAIR      71  35  26 SW6       30.02S
SALT LAKE CITY FAIR      68  38  33 S6        29.84S
LOS ANGELES CA FAIR      63  59  87 W6        29.85S
BOISE ID       FAIR      63  49  60 CALM      29.81R
SEATTLE WA     MOCLDY    55  51  86 S8        29.99S
$$

*** WEATHER ACROSS MANITOBA...SASKATCHEWAN AND ONTARIO ***
                ***ONTARIO***

CITY           SKY/WX    TMP DP  RH WIND       PRES   REMARKS
GERALDTON      PTCLDY    48  46  93 S2        29.76S
THUNDER BAY    PTCLDY    46  45  93 CALM      29.78R
SIOUX LOOKOUT  PTCLDY    48  48 100 CALM      29.70F
TORONTO        PTCLDY    54  48  82 W5        30.04R
BIG TROUT LK   CLOUDY    43  43 100 NE5       29.81S FOG
PICKLE LAKE    NOT AVBL
DRYDEN         PTCLDY    57  48  72 SE3       29.67F
KENORA         CLOUDY    59  48  67 SE9       29.62F
$$
                *** MANITOBA***

CITY           SKY/WX    TMP DP  RH WIND       PRES   REMARKS
BRANDON        PTCLDY    61  55  82 NW10      29.52R
DAUPHIN        CLEAR     61  57  88 W13G18    29.49S
ISLAND LAKE    NOT AVBL
PILOT MOUND      N/A     61  55  82 SW3         N/A
THE PAS        CLOUDY    52  50  93 E9G18     29.51R
THOMPSON       MOCLDY    45  37  76 E8        29.78S
WINNIPEG       LGT RAIN  63  50  63 SE9       29.50F
LYNN LAKE      CLOUDY    46  37  71 E15G26    29.76F
CHURCHILL      FOG       39  39 100 E7        30.01R VSB 1/4
GILLAM         MOCLDY    39  37  93 E7        29.89S
$$
                ***SASKATCHEWAN***

CITY           SKY/WX    TMP DP  RH WIND       PRES   REMARKS
ESTEVAN        PTCLDY    48  45  87 NW12      29.64S
KINDERSLEY     MOCLDY    50  46  87 S6        29.72F
LLOYDMINSTER   MOCLDY    48  46  93 W8        29.64F
PRINCE ALBERT  PTCLDY    52  46  82 W5        29.61R
REGINA         CLEAR     41  39  93 W3        29.69S
YORKTON        CLEAR     50  46  87 W10       29.58F
N. BATTLEFORD  CLEAR     50  45  81 W6        29.67S
LA RONGE       LGT RAIN  52  50  93 E9        29.57S FOG
SASKATOON      PTCLDY    45  43  93 SW9       29.67R
SWIFT CURRENT  PTCLDY    50  39  66 NE2       29.73F
$$
NOTE: THESE ARE AUTOMATED STATIONS WITH LIMITED QUALITY CONTROL
      "FAIR" INDICATES FEW OR NO CLOUDS BELOW 12,000 FEET WITH NO
      SIGNIFICANT WEATHER AND/OR OBSTRUCTIONS TO VISIBILITY.
      SKY/WX - SKY CONDITION AND SIGNIFICANT WEATHER.
      TMP - AIR TEMPERATURE.    DP   - DEWPOINT TEMPERATURE.
      RH  - RELATIVE HUMIDITY.  PRES - PRESSURE.
      HX  - HEAT INDEX.         WCI  - WIND CHILL INDEX.
$




USA.gov is the U.S. government's official web portal to all federal, state and local government web resources and services.